Location: Bottenau
(48.5138°N, 8.0462°E)
Time: 17:17:16
(UTC+00:00)

H-2A R/B - Pass Details

Date: 18 April 2021
Orbit: 575 x 596 km, 98.2° (Epoch: 06 May)

Event Time Altitude Azimuth Distance (km) Brightness Sun altitude
Rises 21:47:39 0° 9° (N) 2,848 7.7 -26.4°
Reaches altitude 10° 21:49:52 10° 4° (N) 1,943 6.8 -26.6°
Enters shadow 21:53:48 50° 297° (WNW) 765 4.2 -26.9°
